SCP
5 5 4 3 2 2 2 2 2 2 3 3 4 4 13 21 11 2 3 2 1 1 1 0 0 0 0 0 0 0 0 1 1 1 1 1 1 2
5 4 4 3 3 3 3 2 3 3 3 4 4 5 9 11 7 4 4 3 2 1 1 0 0 0 0 0 0 0 0 0 1 1 1 1 1 1
5 4 4 4 4 4 4 3 3 4 4 4 4 5 5 5 5 6 7 5 3 2 1 0 0 0 0 0 0 0 0 0 0 0 0 0 1 1
5 5 5 5 5 5 4 4 4 4 4 4 5 5 5 5 6 7 7 6 4 2 1 0 0 0 0 0 0 0 0 0 0 0 0 0 0 0
6 6 6 6 6 6 5 5 5 5 5 5 5 5 5 5 7 7 7 6 4 2 1 0 0 0 0 0 0 0 0 0 0 0 0 0 0 0
6 6 6 6 6 6 6 6 5 5 5 5 5 5 5 6 7 8 8 7 4 2 1 1 0 0 0 0 0 0 0 0 0 0 0 0 0 0
6 6 6 5 5 5 5 5 5 5 5 5 4 4 5 7 8 10 10 8 6 3 2 1 1 1 1 0 0 0 0 0 0 0 0 0 0 0
7 7 6 5 4 4 4 3 3 4 4 4 3 3 4 6 8 10 11 9 6 4 3 3 2 1 1 1 0 0 0 0 0 0 0 0 0 0
8 7 6 5 4 4 4 3 3 3 3 3 3 3 4 5 6 9 9 8 6 5 4 3 2 2 2 1 1 0 0 0 0 0 0 0 0 0
8 7 6 5 4 4 4 3 3 3 2 2 2 3 3 4 4 5 6 5 4 4 4 3 3 2 2 1 1 0 0 0 0 0 0 0 0 0
8 7 6 5 4 4 4 4 3 3 2 2 2 2 2 2 2 3 3 3 3 3 3 2 2 2 2 2 1 0 0 0 0 0 0 0 0 0
9 7 5 4 3 3 4 4 4 3 2 2 2 2 2 2 1 2 2 2 2 2 3 2 2 2 2 2 1 1 0 0 0 0 0 0 0 0
9 7 5 3 2 2 3 4 4 3 2 2 2 2 2 2 2 2 2 2 1 2 2 2 2 1 1 1 1 1 1 0 0 0 0 0 0 0
7 6 4 2 1 1 2 3 3 2 2 2 2 3 3 3 2 2 2 2 2 1 1 2 2 1 1 1 1 1 1 1 0 0 0 0 0 0
4 3 2 1 1 1 2 2 3 2 3 2 2 2 2 2 2 2 2 2 2 2 2 2 2 2 1 1 1 1 1 1 1 0 0 0 0 0
2 1 1 1 1 2 3 3 3 3 3 2 2 2 2 2 2 2 2 2 2 2 2 2 2 2 2 1 1 1 1 1 1 1 1 1 0 0
1 1 2 2 3 4 5 5 4 4 3 2 2 2 2 2 2 2 2 1 1 2 2 1 1 2 2 1 1 1 1 1 1 1 1 1 1 1
1 2 2 3 3 4 5 5 5 4 3 2 2 2 2 2 2 2 2 1 2 2 1 1 1 1 1 1 1 1 1 1 1 1 1 1 1 1
1 1 1 2 2 3 3 4 4 3 3 2 2 2 2 2 2 2 2 1 2 2 1 1 1 1 1 1 1 1 1 2 2 1 1 1 1 1
0 0 1 1 1 2 2 2 2 2 3 2 1 1 2 2 2 2 2 1 1 1 1 1 1 1 1 1 1 1 1 2 2 1 1 1 1 0
0 0 1 1 1 1 2 2 2 2 2 1 1 1 1 1 2 2 1 1 1 1 1 1 1 1 1 1 1 1 1 1 1 1 1 1 1 1
0 1 1 1 1 1 1 2 2 1 1 1 1 1 1 1 1 1 1 1 1 1 1 1 1 1 1 1 1 1 1 1 1 1 1 1 1 1
1 1 1 1 1 1 1 2 2 2 1 1 1 1 1 1 1 1 2 1 1 1 1 1 1 1 1 1 1 1 1 1 1 1 0 0 0 0
Wind_Speed
2 2 2 2 2 2 2 2 2 2 2 2 1 1 1 2 4 4 4 8 8 8 7 6 5 5 4 4 3 3 3 2 2 3 3 4 4 4
2 2 2 2 2 1 1 2 2 2 2 1 1 1 1 2 4 3 3 7 9 9 8 7 7 6 6 5 4 4 3 3 3 3 3 3 3 4
3 2 2 2 2 2 2 1 1 1 1 1 1 1 1 1 2 2 3 4 5 9 8 7 7 7 7 6 5 4 4 3 3 3 3 3 3 3
2 2 2 2 2 2 2 2 1 1 1 2 1 1 1 2 3 3 3 3 4 8 9 8 8 8 7 6 6 5 4 4 3 3 3 3 3 3
2 2 2 2 2 2 2 2 2 2 1 1 2 1 1 1 1 2 2 1 3 4 7 7 7 7 7 7 6 5 4 4 3 3 3 3 3 3
2 2 2 2 2 3 2 2 2 1 1 1 1 1 1 1 1 1 1 1 2 1 2 3 5 6 6 6 6 5 5 4 3 3 2 3 3 3
3 2 2 1 1 1 2 2 2 1 1 1 2 1 1 0 1 1 1 1 2 1 1 1 2 3 3 4 5 6 5 5 4 3 3 3 3 3
3 3 3 2 2 2 2 2 2 3 2 2 2 2 2 2 2 2 1 1 2 1 1 2 2 2 3 3 6 7 6 5 5 4 3 3 3 3
3 3 3 2 1 1 2 3 3 5 5 3 3 3 2 2 2 2 2 2 2 2 2 1 1 1 1 3 8 9 8 7 6 5 5 4 4 3
3 2 2 1 2 1 2 3 3 3 4 4 3 4 3 2 2 3 2 2 2 1 1 1 1 1 1 2 7 8 8 7 7 6 5 5 5 4
3 2 2 1 2 2 2 2 2 2 2 2 3 3 3 3 2 1 1 1 1 1 0 1 1 1 1 1 3 7 8 7 7 6 6 5 4 4
2 2 2 1 2 2 2 2 2 3 2 2 1 2 3 3 4 3 2 2 1 1 0 0 1 1 1 1 1 3 3 5 7 7 6 5 4 2
2 2 2 3 3 3 3 3 3 3 2 2 2 2 2 2 2 2 2 2 1 1 1 0 1 0 1 1 1 2 3 2 3 4 6 6 5 4
2 1 1 4 4 4 4 4 4 2 2 2 1 1 1 1 1 2 2 1 2 2 2 1 1 1 1 1 1 1 2 2 2 3 3 4 5 5
3 2 2 4 4 5 6 6 4 3 2 2 2 2 2 1 1 1 1 1 1 2 2 2 2 2 2 2 2 2 1 1 1 2 2 2 2 2
3 3 3 5 5 5 4 4 4 3 3 2 2 1 1 1 1 1 1 1 1 1 2 2 2 2 2 2 2 2 2 2 2 1 2 2 1 1
2 2 3 3 3 3 3 3 4 3 3 2 2 2 1 1 1 1 1 2 2 2 1 1 1 1 2 2 1 2 1 1 1 2 2 1 1 1
1 2 3 2 2 2 2 2 3 3 3 2 2 2 2 2 2 1 2 2 1 1 1 1 1 1 0 1 1 1 1 1 1 1 1 1 1 0
1 3 2 2 2 2 2 2 2 2 1 1 1 1 1 2 2 2 2 2 2 2 1 1 1 1 1 2 1 1 0 1 1 1 1 1 1 1
3 3 2 2 2 2 2 1 1 0 1 1 1 1 1 1 2 2 2 2 2 1 1 1 1 1 2 1 1 2 2 2 1 2 1 1 1 1
3 3 2 2 2 2 1 1 1 0 1 1 1 1 2 2 2 2 2 3 2 2 2 2 2 2 1 1 1 1 1 1 1 2 2 2 2 1
2 2 2 2 1 1 1 1 1 1 1 1 1 2 2 2 2 3 2 2 2 2 2 1 1 2 2 2 2 1 1 1 0 1 1 2 2 3
2 2 2 1 1 1 1 1 2 2 1 1 1 1 2 2 2 2 2 2 2 2 2 2 1 1 1 1 1 1 2 2 2 2 1 1 2 3
Wind_Direction
254 263 268 273 264 244 233 216 218 252 251 235 203 184 164 135 163 180 164 182 182 185 190 193 199 205 206 201 201 206 207 213 219 213 221 228 228 225
245 252 271 284 288 276 246 240 221 230 255 235 222 175 152 169 164 173 180 182 182 189 194 196 199 201 197 193 195 194 200 206 205 205 218 219 225 229
262 252 263 282 302 314 298 278 255 228 240 261 241 187 171 158 150 195 187 180 187 195 196 199 200 198 195 194 197 200 203 205 214 220 214 211 215 219
256 256 266 272 281 298 306 309 304 269 206 236 243 215 206 176 172 203 216 207 193 188 190 196 199 199 197 197 197 198 199 201 205 208 205 200 203 211
246 250 258 266 269 276 271 284 284 285 248 221 236 214 223 218 191 227 244 264 250 180 180 193 198 199 197 197 194 190 187 192 193 204 210 203 205 216
246 245 255 254 261 267 252 257 269 273 276 267 245 229 219 226 203 234 255 261 281 225 167 180 190 190 187 187 186 183 179 179 185 194 203 200 206 215
248 239 233 219 242 282 284 286 282 274 258 258 249 251 245 248 251 247 236 240 248 210 169 196 175 181 183 186 184 180 177 175 179 186 188 197 210 216
252 242 214 201 210 223 272 288 268 260 263 258 253 244 229 218 231 242 224 233 248 221 206 243 182 174 182 180 175 173 178 184 185 188 191 198 212 222
254 255 261 238 196 250 237 231 243 247 238 242 258 260 248 223 218 240 240 241 249 226 202 237 201 193 186 160 161 169 179 187 188 191 197 199 207 220
258 245 236 239 260 258 260 251 246 249 241 228 237 251 252 232 237 236 244 255 268 270 167 224 236 232 140 140 174 178 186 190 193 197 201 203 207 219
242 235 227 217 255 256 252 256 265 277 274 255 234 230 232 223 216 227 233 221 269 266 224 218 216 227 161 165 185 189 193 197 202 205 206 209 211 219
236 211 200 217 245 243 242 246 257 275 274 273 238 232 227 223 216 214 229 227 256 267 241 234 224 201 231 210 170 181 204 214 215 217 215 213 210 210
252 233 211 197 211 232 237 241 245 266 260 243 229 216 221 214 205 210 215 211 229 260 253 249 272 252 219 258 241 211 203 195 200 216 215 214 207 201
274 274 230 203 217 232 240 251 251 250 250 244 230 223 222 213 209 204 204 200 205 216 229 223 242 229 226 255 260 240 226 199 190 190 183 190 208 220
279 280 272 239 239 236 235 238 234 236 234 226 227 231 228 198 176 189 161 179 247 249 233 218 223 232 229 238 235 227 236 247 205 174 168 165 176 188
270 276 258 245 250 255 244 222 217 226 231 227 224 218 208 188 185 200 220 211 225 264 250 224 225 223 242 252 236 231 218 207 207 185 160 156 175 195
309 268 250 232 229 232 234 220 213 214 221 224 221 211 195 191 208 216 228 232 224 221 240 245 221 209 194 217 231 233 217 216 197 182 165 177 201 186
243 266 265 257 249 239 232 233 231 225 214 207 206 201 194 194 199 209 212 219 238 247 230 220 205 186 316 313 228 221 223 218 187 164 161 156 176 139
243 268 278 279 273 265 250 234 228 225 206 208 214 208 208 209 208 211 215 216 219 237 238 215 210 192 219 264 284 300 231 185 170 181 185 170 184 184
246 261 274 279 279 278 276 274 261 216 192 209 220 232 224 221 222 223 223 215 219 231 244 230 200 202 216 221 215 254 248 207 185 185 186 153 131 125
260 265 272 276 283 288 299 298 288 255 237 228 232 239 239 230 229 231 232 216 220 224 224 226 219 198 180 170 213 232 221 222 189 181 186 190 200 200
272 277 276 278 282 282 292 290 273 247 239 239 236 237 241 238 238 234 236 231 223 216 224 227 194 189 198 208 221 221 234 211 249 163 199 211 200 200
267 278 276 280 277 265 261 268 270 271 274 280 270 262 265 256 244 242 235 236 234 228 212 203 210 208 212 212 215 215 216 214 202 192 254 281 196 197